Overview Statistics Trail Chart Weather Telemetry Raw packets
 

This is the latest recevied weather packets stored in our database for station/object WB5RFA. If no packets are shown the sender has not sent any weather packets the latest 10 day(s).

<< 66 67 68 69 70 71 72 >>
Time Temp. Humidity Pressure Rain* Wind** Luminosity Snow
1787763939 31.11° C 62% 1014.6 hPa 0 mm - - -
1787763459 31.11° C 61% 1014.7 hPa 0 mm - - -
1787762980 30.56° C 64% 1014.7 hPa 0 mm - - -
1787762500 30.56° C 65% 1014.7 hPa 0 mm - - -
1787762020 30.56° C 67% 1014.7 hPa 0 mm - - -
1787761539 30° C 68% 1014.7 hPa 0 mm - - -
1787761059 29.44° C 71% 1014.6 hPa 0 mm - - -
1787760578 28.89° C 72% 1014.6 hPa 0 mm - - -
1787760100 28.89° C 74% 1014.6 hPa 0 mm - - -
1787759619 28.89° C 74% 1014.7 hPa 0 mm - - -
1787759138 28.33° C 75% 1014.6 hPa 0 mm - - -
1787758660 27.78° C 77% 1014.6 hPa 0 mm - - -
1787758179 27.78° C 77% 1014.6 hPa 0 mm - - -
1787757700 27.22° C 78% 1014.5 hPa 0 mm - - -
1787757220 26.67° C 81% 1014.4 hPa 0 mm - - -
1787756740 26.67° C 81% 1014.4 hPa 0 mm - - -
1787756259 26.67° C 83% 1014.5 hPa 0 mm - - -
1787755779 26.11° C 83% 1014.3 hPa 0 mm - - -
1787755298 26.11° C 84% 1014.4 hPa 0 mm - - -
1787754820 25.56° C 84% 1014.3 hPa 0 mm - - -
1787754340 25° C 83% 1014.2 hPa 0 mm - - -
1787753859 24.44° C 83% 1014.2 hPa 0 mm - - -
1787753379 24.44° C 81% 1014.3 hPa 0 mm - - -
1787752899 24.44° C 80% 1014.3 hPa 0 mm - - -
1787752420 24.44° C 78% 1014.4 hPa 0 mm - - -

* Rain latest hour (hover to see other rain measurements)
** Current wind speed in m/s (hover to see current wind gust speed)